Lewiston, WA

11:48 PM PST on December 14, 2017 (GMT -0800)
Lewiston-Nez Perce County

Weather History for KLWS - April, 2014

Change the Weather History Date:

Friday, April 4, 2014

  Actual Average Record
Temperature  
Mean Temperature 49 °F 49 °F  
Max Temperature 55 °F 60 °F 85 °F (1944)
Min Temperature 42 °F 39 °F 28 °F (2001)
Degree Days  
Heating Degree Days 16 16  
Month to date heating degree days 65 64  
Since 1 July heating degree days 4823 4531  
Cooling Degree Days 0 0  
Month to date cooling degree days 0 0  
Year to date cooling degree days 0 0  
Moisture  
Dew Point 37 °F    
Average Humidity 62    
Maximum Humidity 83    
Minimum Humidity 41    
Precipitation  
Precipitation 0.03 in 0.04 in 0.46 in (2011)
Month to date precipitation 0.06 0.16  
Year to date precipitation 3.83 3.17  
Snow  
Snow 0.00 in 0.00 in 1.00 in (1947)
Month to date snowfall 0.0 0.0  
Since 1 July snowfall 16.5 10.5  
Snow Depth 0.00 in    
Sea Level Pressure  
Sea Level Pressure 29.90 in    
Wind  
Wind Speed 5 mph (SSW)    
Max Wind Speed 17 mph    
Max Gust Speed 22 mph    
Visibility 10 miles    
Events Rain    
T = Trace of Precipitation, MM = Missing Value Source: NWS Daily Summary

Daily Weather History Graph

Daily Weather History Graph

Search for Another Location

Airport or City:

Trip Planner

Search our weather history database for the weather conditions in past years. The results will help you decide how hot, cold, wet, or windy it might be!

Date:

Astronomy

Apr. 04, 2014 Rise Set
Actual Time 6:21 AM PDT 7:21 PM PDT
Civil Twilight 5:51 AM PDT 7:51 PM PDT
Nautical Twilight 5:14 AM PDT 8:28 PM PDT
Astronomical Twilight 4:35 AM PDT 9:07 PM PDT
Moon 9:30 AM PDT (4/4) No Moon Set
Length of Visible Light 14h 00m
Length of Day
12h 59m
Waxing Crescent, 26% of the Moon is Illuminated
Apr 4
Waxing Crescent
Apr 7
First Quarter
Apr 15
Full
Apr 22
Last Quarter
Apr 28
New

Hourly Weather History & Observations

Time (PDT) Temp. Windchill Dew Point Humidity Pressure Visibility Wind Dir Wind Speed Gust Speed Precip Events Conditions
12:56 AM 46.9 °F - 39.0 °F 74% 29.93 in 10.0 mi Calm Calm - N/A   Overcast
1:56 AM 46.0 °F 43.9 °F 39.9 °F 79% 29.91 in 10.0 mi North 4.6 mph - N/A   Overcast
2:56 AM 45.0 °F - 39.0 °F 80% 29.91 in 10.0 mi Calm Calm - N/A   Overcast
3:56 AM 46.0 °F 42.5 °F 39.0 °F 76% 29.89 in 10.0 mi ENE 6.9 mph - N/A   Overcast
4:56 AM 44.1 °F 42.5 °F 39.9 °F 85% 29.90 in 10.0 mi West 3.5 mph - N/A   Overcast
5:56 AM 46.0 °F 43.9 °F 37.9 °F 73% 29.91 in 10.0 mi WNW 4.6 mph - 0.00 in Rain Light Rain
6:56 AM 46.0 °F - 37.9 °F 73% 29.92 in 7.0 mi Calm Calm - 0.01 in Rain Light Rain
7:56 AM 45.0 °F 42.6 °F 39.9 °F 82% 29.92 in 10.0 mi SSE 4.6 mph - 0.01 in Rain Light Rain
8:56 AM 46.9 °F - 39.0 °F 74% 29.94 in 9.0 mi Calm Calm - 0.00 in Rain Light Rain
9:56 AM 46.9 °F - 39.0 °F 74% 29.94 in 10.0 mi Calm Calm - 0.01 in   Overcast
10:24 AM 48.0 °F - 41.0 °F 77% 29.92 in 10.0 mi NE 3.5 mph - N/A   Overcast
10:56 AM 48.9 °F - 39.9 °F 71% 29.93 in 10.0 mi Variable 4.6 mph - N/A   Overcast
11:56 AM 51.1 °F - 39.0 °F 63% 29.91 in 10.0 mi East 3.5 mph - N/A   Overcast
12:56 PM 53.6 °F - 35.6 °F 51% 29.88 in 10.0 mi NW 5.8 mph - N/A   Mostly Cloudy
1:56 PM 54.0 °F - 36.0 °F 51% 29.88 in 10.0 mi West 9.2 mph 17.3 mph 0.00 in   Overcast
2:56 PM 55.0 °F - 39.0 °F 55% 29.87 in 10.0 mi South 11.5 mph - N/A   Overcast
3:56 PM 53.1 °F - 36.0 °F 52% 29.86 in 10.0 mi SSE 8.1 mph - N/A   Overcast
4:56 PM 53.1 °F - 37.0 °F 55% 29.87 in 10.0 mi South 6.9 mph - 0.00 in   Overcast
5:56 PM 54.0 °F - 33.1 °F 45% 29.86 in 10.0 mi SSE 3.5 mph - N/A   Mostly Cloudy
6:56 PM 54.0 °F - 30.9 °F 41% 29.86 in 10.0 mi WSW 15.0 mph 21.9 mph N/A   Overcast
7:56 PM 48.9 °F - 32.0 °F 52% 29.88 in 10.0 mi SW 8.1 mph - N/A   Partly Cloudy
8:56 PM 46.9 °F - 32.0 °F 56% 29.90 in 10.0 mi SSW 10.4 mph - N/A   Clear
9:56 PM 46.9 °F - 33.1 °F 59% 29.91 in 10.0 mi Calm Calm - N/A   Overcast
10:56 PM 45.0 °F - 32.0 °F 60% 29.92 in 10.0 mi Calm Calm - N/A   Mostly Cloudy
11:56 PM 44.1 °F - 32.0 °F 63% 29.93 in 10.0 mi Calm Calm - N/A   Clear